SKYSAT-C6

Last updated on Fri Oct 04 2024 00:02:26 GMT+0000 (Coordinated Universal Time)

1 42992U 17068F 24277.34196325 .00031047 00000+0 10448-2 0 9996 2 42992 97.3848 43.6830 0004044 148.8304 211.3177 15.30722095387151
UTC large
Height (km)
Speed (km/s)
/
Latitude / Longitude
Inclination (degrees)
Orbital Period (minutes)
Azimuth
Elevation
Range (km)
Doppler Factor

Next 0 passes for location: London (51.5072 / 0.1276)

Sorry there are no passes over London.